This demonstration page uses our WeatherBlox Daily Observations layout. Learn more.

Left ArrowRight Arrow

41.55636, -103.73856

Hourly Observations for March 16, 2021

Temp ( °F °C ) Dew Point ( °F °C ) Humidity (%) Winds ( mph kmh ) Pressure ( in mb ) Visibility ( mi km ) Precip ( " mm )
12:58 am 00:58 Mostly Cloudy with Freezing Fog 24 -4.4 22 -5.4 93 93 N 5 7 29.90 1013 1 2 0.00 0.00
1:58 am 01:58 Mostly Cloudy with Light Snow 24 -4.6 22 -5.6 93 93 NW 3 6 29.93 1014 2 2 0.00 0.00
2:58 am 02:58 Mostly Cloudy with Freezing Fog 24 -4.6 22 -5.7 92 92 Calm 29.93 1014 0 0 0.00 0.00
3:58 am 03:58 Mostly Cloudy 24 -4.6 22 -5.6 93 93 Calm 29.91 1013 10 16 0.00 0.00
4:58 am 04:58 Mostly Cloudy with Light Snow 24 -4.5 22 -5.5 93 93 NW 3 6 29.91 1013 7 11 0.00 0.00
5:58 am 05:58 Mostly Cloudy with Light Snow Showers 23 -4.8 21 -5.9 92 92 WNW 3 6 29.93 1014 10 16 0.00 0.00
6:58 am 06:58 Mostly Cloudy 24 -4.6 22 -5.5 94 94 W 3 6 29.95 1014 10 16 0.01 0.25
7:58 am 07:58 Mostly Cloudy with Light Snow 26 -3.2 25 -4 94 94 NW 6 9 29.94 1014 9 14 0.00 0.00
8:58 am 08:58 Mostly Cloudy with Light Snow 27 -2.6 26 -3.5 94 94 NNW 7 11 29.96 1015 10 16 0.02 0.51
9:58 am 09:58 Cloudy with Light Snow 28 -2.4 26 -3.2 94 94 NNW 6 9 29.96 1015 9 14 0.01 0.25
10:58 am 10:58 Cloudy with Light Showers 27 -2.6 26 -3.4 94 94 NW 5 7 30.00 1016 6 10 0.00 0.00
11:58 am 11:58 Cloudy with Light Snow 28 -2.1 27 -2.9 94 94 NNW 13 20 29.99 1016 3 5 0.00 0.00
12:58 pm 12:58 Mostly Cloudy 28 -2.1 27 -3 94 94 N 15 24 29.98 1015 10 16 0.00 0.00
1:58 pm 13:58 Mostly Cloudy 29 -1.9 27 -2.8 94 94 N 15 24 29.97 1015 10 16 0.00 0.00
2:58 pm 14:58 Mostly Cloudy 28 -2.2 26 -3.1 94 94 N 12 19 29.98 1015 10 16 0.00 0.00
3:58 pm 15:58 Mostly Cloudy 28 -2.1 26 -3.1 93 93 N 7 11 30.01 1016 10 16 0.00 0.00
4:58 pm 16:58 Mostly Cloudy 28 -2.2 26 -3.4 92 92 N 9 15 30.01 1016 10 16 0.00 0.00
5:58 pm 17:58 Mostly Cloudy 27 -2.7 25 -4 91 91 NNW 13 20 30.04 1017 10 16 0.00 0.00
6:58 pm 18:58 Mostly Cloudy 26 -3.3 24 -4.4 92 92 NW 9 15 30.06 1018 10 16 0.00 0.00
7:58 pm 19:58 Cloudy 28 -2.4 26 -3.5 92 92 NW 9 15 30.06 1018 10 16 0.00 0.00
8:58 pm 20:58 Cloudy with Light Snow 29 -1.7 27 -3 91 91 NNW 12 19 30.08 1019 10 16 0.00 0.00
10:58 pm 22:58 Cloudy 28 -2 26 -3.3 91 91 NNW 13 20 30.10 1019 10 16 0.00 0.00
11:58 pm 23:58 Mostly Cloudy 28 -2.5 24 -4.6 86 86 N 18 30 30.09 1019 10 16 0.00 0.00

Powered by AerisWeather